Weather History for Elefsis, Greece

Change the Weather History Date:

Sunday, April 15, 2012

  Actual Average Record
Temperature  
Mean Temperature 58 °F -  
Max Temperature 69 °F 72 °F 75 °F (1998)
Min Temperature 48 °F 53 °F 33 °F (1997)
Degree Days  
Heating Degree Days 6    
Growing Degree Days 8 (Base 50)    
Moisture  
Dew Point 44 °F    
Average Humidity 59    
Maximum Humidity 94    
Minimum Humidity 28    
Precipitation  
Precipitation 0.00 in - - ()
Sea Level Pressure  
Sea Level Pressure 29.61 in    
Wind  
Wind Speed 5 mph ()    
Max Wind Speed 16 mph    
Max Gust Speed 29 mph    
Visibility 6.2 miles    
Events      
Averages and records for this station are not official NWS values.
T = Trace of Precipitation, MM = Missing Value Source: Averaged Metar Reports

Daily Weather History Graph

Daily Weather History Graph

Search for Another Location

Airport:

Trip Planner

Search our weather history database for the weather conditions in past years. The results will help you decide how hot, cold, wet, or windy it might be!

Date:

Astronomy

Apr. 15, 2012 Rise Set
Actual Time 6:50 AM EEST 8:02 PM EEST
Civil Twilight 6:22 AM EEST 8:29 PM EEST
Nautical Twilight 5:50 AM EEST 9:01 PM EEST
Astronomical Twilight 5:16 AM EEST 9:35 PM EEST
Moon 3:32 AM EEST (4/15) 2:42 PM EEST (4/15)
Length of Visible Light 14h 06m
Length of Day
13h 12m
Waning Crescent, 30% of the Moon is Illuminated
Apr 15
Waning Crescent
Apr 21
New
Apr 29
First Quarter
May 6
Full
May 13
Last Quarter

Hourly Weather History & Observations

Time (EEST) Temp. Dew Point Humidity Pressure Visibility Wind Dir Wind Speed Gust Speed Precip Events Conditions
12:20 AM 55.4 °F 50.0 °F 82% 29.53 in 6.2 mi Variable 3.5 mph - N/A   Scattered Clouds
12:50 AM 53.6 °F 50.0 °F 88% 29.53 in 6.2 mi Calm Calm - N/A   Scattered Clouds
1:20 AM 51.8 °F 48.2 °F 88% 29.53 in 6.2 mi Calm Calm - N/A   Scattered Clouds
1:50 AM 51.8 °F 48.2 °F 88% 29.53 in 6.2 mi North 5.8 mph - N/A   Partly Cloudy
2:20 AM 51.8 °F 48.2 °F 88% 29.53 in 6.2 mi Variable 2.3 mph - N/A   Partly Cloudy
2:50 AM 51.8 °F 48.2 °F 88% 29.53 in 6.2 mi Variable 2.3 mph - N/A   Scattered Clouds
3:20 AM 51.8 °F 48.2 °F 88% 29.53 in 6.2 mi Calm Calm - N/A   Partly Cloudy
3:50 AM 51.8 °F 48.2 °F 88% 29.56 in 6.2 mi Calm Calm - N/A   Partly Cloudy
4:20 AM 53.6 °F 48.2 °F 82% 29.56 in 6.2 mi Calm Calm - N/A   Partly Cloudy
4:50 AM 50.0 °F 48.2 °F 94% 29.56 in 6.2 mi Variable 3.5 mph - N/A   Scattered Clouds
5:20 AM 51.8 °F 48.2 °F 88% 29.56 in 6.2 mi Variable 3.5 mph - N/A   Partly Cloudy
5:50 AM 48.2 °F 46.4 °F 93% 29.56 in 6.2 mi Variable 2.3 mph - N/A   Scattered Clouds
6:20 AM 50.0 °F 46.4 °F 87% 29.56 in 6.2 mi Variable 3.5 mph - N/A   Scattered Clouds
6:50 AM 48.2 °F 46.4 °F 93% 29.56 in 6.2 mi Variable 3.5 mph - N/A   Scattered Clouds
7:20 AM 48.2 °F 46.4 °F 93% 29.59 in 6.2 mi Variable 3.5 mph - N/A   Scattered Clouds
7:50 AM 51.8 °F 48.2 °F 88% 29.59 in 6.2 mi Calm Calm - N/A   Scattered Clouds
8:20 AM 55.4 °F 50.0 °F 82% 29.59 in 6.2 mi Calm Calm - N/A   Scattered Clouds
8:50 AM 59.0 °F 48.2 °F 67% 29.59 in 6.2 mi Calm Calm - N/A   Scattered Clouds
9:20 AM 60.8 °F 48.2 °F 63% 29.59 in 6.2 mi WNW 4.6 mph - N/A   Scattered Clouds
9:50 AM 62.6 °F 46.4 °F 55% 29.59 in 6.2 mi West 9.2 mph - N/A   Scattered Clouds
10:20 AM 64.4 °F 42.8 °F 45% 29.59 in 6.2 mi West 10.4 mph - N/A   Scattered Clouds
10:50 AM 66.2 °F 41.0 °F 40% 29.62 in 6.2 mi WSW 12.7 mph - N/A   Scattered Clouds
11:20 AM 66.2 °F 41.0 °F 40% 29.62 in 6.2 mi WSW 9.2 mph - N/A   Scattered Clouds
11:50 AM 68.0 °F 42.8 °F 40% 29.62 in 6.2 mi SW 9.2 mph - N/A   Scattered Clouds
12:20 PM 68.0 °F 39.2 °F 35% 29.62 in 6.2 mi SW 11.5 mph - N/A   Scattered Clouds
12:50 PM 68.0 °F 37.4 °F 33% 29.62 in 6.2 mi West 15.0 mph - N/A   Partly Cloudy
1:20 PM 68.0 °F 37.4 °F 33% 29.62 in 6.2 mi WSW 12.7 mph - N/A   Partly Cloudy
1:50 PM 68.0 °F 39.2 °F 35% 29.62 in 6.2 mi SW 6.9 mph - N/A   Partly Cloudy
2:20 PM 69.8 °F 39.2 °F 33% 29.62 in 6.2 mi WSW 10.4 mph - N/A   Partly Cloudy
2:50 PM 69.8 °F 39.2 °F 33% 29.62 in 6.2 mi West 13.8 mph - N/A   Partly Cloudy
3:20 PM 69.8 °F 39.2 °F 33% 29.62 in 6.2 mi West 16.1 mph - N/A   Partly Cloudy
3:50 PM 69.8 °F 37.4 °F 31% 29.62 in 6.2 mi West 13.8 mph 28.8 mph N/A   Partly Cloudy
4:20 PM 69.8 °F 37.4 °F 31% 29.62 in 6.2 mi West 16.1 mph 27.6 mph N/A   Partly Cloudy
4:50 PM 69.8 °F 37.4 °F 31% 29.62 in 6.2 mi West 11.5 mph 23.0 mph N/A   Partly Cloudy
5:20 PM 69.8 °F 35.6 °F 28% 29.62 in 6.2 mi West 11.5 mph 24.2 mph N/A   Partly Cloudy
5:50 PM 68.0 °F 37.4 °F 33% 29.65 in 6.2 mi West 11.5 mph 28.8 mph N/A   Partly Cloudy
6:20 PM 68.0 °F 37.4 °F 33% 29.65 in 6.2 mi West 11.5 mph 24.2 mph N/A   Partly Cloudy
6:50 PM 68.0 °F 39.2 °F 35% 29.65 in 6.2 mi West 10.4 mph - N/A   Partly Cloudy
7:20 PM 66.2 °F 41.0 °F 40% 29.65 in 6.2 mi West 10.4 mph - N/A   Partly Cloudy
7:50 PM 64.4 °F 42.8 °F 45% 29.68 in 6.2 mi West 8.1 mph - N/A   Partly Cloudy
8:20 PM 62.6 °F 42.8 °F 48% 29.68 in 6.2 mi West 9.2 mph - N/A   Partly Cloudy
8:50 PM 62.6 °F 42.8 °F 48% 29.68 in 6.2 mi West 8.1 mph - N/A   Partly Cloudy
9:20 PM 62.6 °F 42.8 °F 48% 29.68 in 6.2 mi West 8.1 mph - N/A   Partly Cloudy
9:50 PM 60.8 °F 42.8 °F 52% 29.74 in 6.2 mi NW 4.6 mph - N/A   Partly Cloudy
10:20 PM 60.8 °F 42.8 °F 52% 29.74 in 6.2 mi NW 4.6 mph - N/A   Partly Cloudy
10:50 PM 57.2 °F 44.6 °F 63% 29.74 in 6.2 mi Calm Calm - N/A   Partly Cloudy
11:20 PM 57.2 °F 44.6 °F 63% 29.74 in 6.2 mi Calm Calm - N/A   Partly Cloudy
11:50 PM 59.0 °F 44.6 °F 59% 29.74 in 6.2 mi Calm Calm - N/A   Partly Cloudy